Weather History for Crestview, FL

Change the Weather History Date:

Thursday, November 21, 2013

  Actual Average Record
Temperature  
Mean Temperature 62 °F -  
Max Temperature 71 °F 69 °F 82 °F (2011)
Min Temperature 54 °F 44 °F 23 °F (2000)
Degree Days  
Heating Degree Days 2    
Growing Degree Days 12 (Base 50)    
Moisture  
Dew Point 54 °F    
Average Humidity 79    
Maximum Humidity 93    
Minimum Humidity 66    
Precipitation  
Precipitation 0.00 in - - ()
Sea Level Pressure  
Sea Level Pressure 30.23 in    
Wind  
Wind Speed 5 mph (NE)    
Max Wind Speed 8 mph    
Max Gust Speed -    
Visibility 10 miles    
Events      
Averages and records for this station are not official NWS values.
T = Trace of Precipitation, MM = Missing Value Source: NWS Daily Summary

Daily Weather History Graph

Daily Weather History Graph

Search for Another Location

Airport:

Trip Planner

Search our weather history database for the weather conditions in past years. The results will help you decide how hot, cold, wet, or windy it might be!

Date:

Astronomy

Nov. 21, 2013 Rise Set
Actual Time 6:17 AM CST 4:45 PM CST
Civil Twilight 5:52 AM CST 5:11 PM CST
Nautical Twilight 5:22 AM CST 5:41 PM CST
Astronomical Twilight 4:53 AM CST 6:10 PM CST
Moon 8:19 PM CST (11/21) 9:25 AM CST (11/21)
Length of Visible Light 11h 19m
Length of Day
10h 28m
Waning Gibbous, 85% of the Moon is Illuminated
Nov 21
Waning Gibbous
Nov 25
Last Quarter
Dec 2
New
Dec 9
First Quarter
Dec 17
Full

Hourly Weather History & Observations

Time (CST) Temp. Dew Point Humidity Pressure Visibility Wind Dir Wind Speed Gust Speed Precip Events Conditions
12:21 AM 55.9 °F 48.0 °F 75% 30.21 in 10.0 mi ENE 4.6 mph - N/A   Scattered Clouds
12:53 AM 55.0 °F 48.0 °F 77% 30.21 in 10.0 mi NE 5.8 mph - N/A   Scattered Clouds
1:02 AM 55.0 °F 48.0 °F 77% 30.21 in 10.0 mi ENE 4.6 mph - N/A   Mostly Cloudy
1:17 AM 55.0 °F 48.0 °F 77% 30.21 in 10.0 mi NE 5.8 mph - N/A   Overcast
1:34 AM 54.0 °F 48.0 °F 80% 30.22 in 10.0 mi NE 4.6 mph - N/A   Scattered Clouds
1:53 AM 54.0 °F 48.0 °F 80% 30.22 in 10.0 mi NE 4.6 mph - N/A   Clear
2:37 AM 54.0 °F 48.0 °F 80% 30.22 in 10.0 mi ENE 4.6 mph - N/A   Mostly Cloudy
2:53 AM 54.0 °F 48.0 °F 80% 30.21 in 10.0 mi ENE 4.6 mph - N/A   Overcast
3:53 AM 55.9 °F 48.9 °F 77% 30.22 in 10.0 mi ENE 6.9 mph - N/A   Overcast
4:53 AM 55.0 °F 48.0 °F 77% 30.22 in 10.0 mi ENE 5.8 mph - N/A   Overcast
5:53 AM 55.0 °F 48.0 °F 77% 30.23 in 10.0 mi ENE 4.6 mph - N/A   Overcast
6:53 AM 55.9 °F 48.0 °F 75% 30.26 in 10.0 mi NE 4.6 mph - N/A   Overcast
7:53 AM 57.0 °F 48.9 °F 74% 30.27 in 10.0 mi ENE 5.8 mph - N/A   Overcast
8:10 AM 57.0 °F 48.9 °F 74% 30.27 in 10.0 mi ENE 5.8 mph - N/A   Overcast
8:48 AM 57.2 °F 50.0 °F 77% 30.27 in 10.0 mi East 8.1 mph - N/A   Overcast
8:53 AM 57.9 °F 50.0 °F 75% 30.27 in 10.0 mi ENE 6.9 mph - N/A   Overcast
9:53 AM 62.1 °F 52.0 °F 70% 30.28 in 10.0 mi ENE 6.9 mph - N/A   Overcast
10:53 AM 64.0 °F 54.0 °F 70% 30.26 in 10.0 mi Variable 4.6 mph - N/A   Overcast
11:53 AM 66.0 °F 55.9 °F 70% 30.24 in 10.0 mi NE 4.6 mph - N/A   Overcast
12:53 PM 66.9 °F 57.0 °F 70% 30.22 in 10.0 mi NNE 5.8 mph - N/A   Overcast
1:19 PM 66.0 °F 57.0 °F 73% 30.22 in 10.0 mi NE 4.6 mph - N/A   Overcast
1:53 PM 66.9 °F 57.9 °F 73% 30.21 in 10.0 mi Calm Calm - 0.00 in   Overcast
2:53 PM 71.1 °F 59.0 °F 66% 30.20 in 10.0 mi NE 4.6 mph - N/A   Overcast
3:53 PM 70.0 °F 60.1 °F 71% 30.20 in 10.0 mi NNW 3.5 mph - N/A   Clear
4:53 PM 64.9 °F 60.1 °F 84% 30.20 in 10.0 mi Calm Calm - N/A   Partly Cloudy
5:19 PM 63.0 °F 60.1 °F 90% 30.22 in 10.0 mi Calm Calm - N/A   Mostly Cloudy
5:39 PM 62.1 °F 60.1 °F 93% 30.22 in 9.0 mi Calm Calm - N/A   Scattered Clouds
5:53 PM 62.1 °F 59.0 °F 90% 30.22 in 9.0 mi NNE 3.5 mph - N/A   Clear
6:53 PM 64.0 °F 59.0 °F 84% 30.23 in 10.0 mi NE 4.6 mph - N/A   Clear
7:53 PM 64.0 °F 60.1 °F 87% 30.24 in 10.0 mi ENE 5.8 mph - N/A   Clear
8:49 PM 64.4 °F 60.8 °F 88% 30.26 in 10.0 mi NE 3.5 mph - N/A   Overcast
8:53 PM 64.9 °F 60.1 °F 84% 30.26 in 10.0 mi NE 4.6 mph - N/A   Overcast
9:01 PM 64.9 °F 59.0 °F 81% 30.26 in 10.0 mi ENE 3.5 mph - N/A   Overcast
9:53 PM 64.0 °F 59.0 °F 84% 30.25 in 10.0 mi ENE 4.6 mph - N/A   Overcast
10:53 PM 64.0 °F 59.0 °F 84% 30.26 in 10.0 mi ENE 4.6 mph - N/A   Overcast
11:53 PM 63.0 °F 59.0 °F 87% 30.24 in 10.0 mi Calm Calm - N/A   Scattered Clouds